THORAD DELTA 1 DEB, 42598

Orbit data source: Space-Track

THORAD DELTA 1 DEB, 42598 is space debris in SSO originally from a launch on Fri, 15 Nov 1974 UTC launched from the Air Force Western Test Range (AFWTR). Debris objects in space refer to the collection of defunct objects orbiting the Earth. Examples of debris include non-operational satellites, rocket bodies, and fragments generated from explosions, collisions, or faulty payload assembly.

Loading next visibility...
Identifier
42598, 1974-089FP
Orbit
SSO
Country
Flag of USUS
Related business
Manufacturer
Unknown
Mission
Spacecraft
Bus & Motor
Unknown
Mass
Unknown
Launch date (UTC)
1974-11-15 (51 years ago)
Launch vehicle
Unknown
Launch site
Air Force Western Test Range (AFWTR)
Object type
Payload
Rocket body
Debris
Shape & HBR
Unknown shape, 0.1 m
Radar Cross Section
Small (<0.1 m²)

Expand to show TLE details & history
Last TLE update: 2 days ago

TLE from 2 days ago
0 THORAD DELTA 1 DEB
1 42598U 74089FP  26122.28287142  .00000413  00000-0  31610-2 0  9994
2 42598 102.7919 150.8952 0175110 317.4156  41.3440 12.42988924563864
Epoch: 2026-05-02T06:47Z
TLE epoch observation values (Epoch: 2026-05-02T06:47:20.090Z)
Latitude
-0.00003°
Longitude
-171.1415°
Altitude
1,394.049 km
Speed
7.209 km/s
True Right ascension
10h 03m 34s
True Declination
0° 00' 00"
Sunlit
Object was in daylight at epoch
Visualization orbit readout
Latitude
Unknown
Longitude
Unknown
Altitude
Unknown
Speed
Unknown
Apparent Right ascension
Unknown
Apparent Declination
Unknown
Sunlit
N/A
Visualization observer readout
Local Sidereal Time
04:15:34
Azimuth
Unknown
Elevation
Unknown
Doppler factor
Unknown
Orbital elements
Apogee altitude
1,629.383 km
Perigee altitude
1,353.77 km
Semi-major axis
7,869.714 km
Eccentricity
0.01751
Inclination
102.7919°
RAAN
150.8952°
Arg. of periapsis
317.4156°
True anomaly
42.69153°
Mean anomaly
41.344°
Eccentric anomaly
42.01555°
Mean motion
3.10889 °/min
Orbital period
115.8 mins
BSTAR
0.003161
Loading maneuver chart data...
Computing Atmospheric mass density...

Documentation

Showing up to 5 results
|